Date Time,Air Temp,Sky Temp,Clarity,Light Level,Rain Sensor,Readings
2010-01-12 00:00:00,9.4,-5.6,15.0,0.3,2.3,111
2010-01-12 00:05:00,9.3,-5.3,14.6,0.3,2.3,111
2010-01-12 00:10:00,9.3,-4.7,14.0,0.3,2.4,112
2010-01-12 00:15:00,9.5,-4.0,13.5,0.3,2.3,112
2010-01-12 00:20:00,9.7,-3.8,13.5,0.3,2.2,112
2010-01-12 00:25:00,9.9,-4.6,14.4,0.3,1.5,111
2010-01-12 00:30:00,9.8,-4.8,14.6,0.3,2.1,111
2010-01-12 00:35:00,9.6,-4.7,14.3,0.3,2.3,112
2010-01-12 00:40:00,9.6,-4.3,13.8,0.3,2.3,112
2010-01-12 00:45:00,9.7,-4.0,13.7,0.3,2.3,111
2010-01-12 00:50:00,9.7,-4.5,14.2,0.3,2.2,112
2010-01-12 00:55:00,9.7,-4.5,14.2,0.3,2.1,112
2010-01-12 01:00:00,9.6,-4.4,14.0,0.3,2.0,111
2010-01-12 01:05:00,9.5,-4.9,14.4,0.3,2.1,112
2010-01-12 01:10:00,9.4,-5.0,14.4,0.3,2.3,111
2010-01-12 01:15:00,9.3,-4.8,14.1,0.3,2.3,112
2010-01-12 01:20:00,9.3,-4.5,13.8,0.3,2.4,112
2010-01-12 01:25:00,9.3,-4.4,13.7,0.3,2.5,112
2010-01-12 01:30:00,9.3,-4.4,13.6,0.3,2.5,112
2010-01-12 01:35:00,9.3,-4.1,13.5,0.3,2.5,112
2010-01-12 01:40:00,9.5,-3.9,13.4,0.3,2.4,112
2010-01-12 01:45:00,9.6,-4.1,13.7,0.3,2.3,112
2010-01-12 01:50:00,9.6,-4.2,13.8,0.3,2.3,112
2010-01-12 01:55:00,9.5,-4.1,13.7,0.3,2.3,112
2010-01-12 02:00:00,9.5,-4.1,13.7,0.3,2.3,111
2010-01-12 02:05:00,9.5,-4.3,13.7,0.3,2.3,113
2010-01-12 02:10:00,9.4,-4.5,13.9,0.3,2.3,112
2010-01-12 02:15:00,9.4,-4.4,13.8,0.3,2.3,111
2010-01-12 02:20:00,9.4,-4.2,13.6,0.3,2.3,112
2010-01-12 02:25:00,9.4,-4.3,13.8,0.3,2.3,112
2010-01-12 02:30:00,9.4,-4.4,13.8,0.3,2.3,112
2010-01-12 02:35:00,9.5,-4.0,13.5,0.3,2.3,112
2010-01-12 02:40:00,9.5,-4.1,13.7,0.3,2.3,112
2010-01-12 02:45:00,9.6,-4.2,13.7,0.3,2.3,112
2010-01-12 02:50:00,9.6,-3.4,13.0,0.3,2.3,112
2010-01-12 02:55:00,9.8,-3.4,13.2,0.3,2.3,112
2010-01-12 03:00:00,9.9,-4.0,13.9,0.3,1.8,111
2010-01-12 03:05:00,9.9,-3.6,13.5,0.3,1.5,112
2010-01-12 03:10:00,9.9,-4.0,13.9,0.3,1.5,112
2010-01-12 03:15:00,9.9,-4.0,13.9,0.3,1.4,112
2010-01-12 03:20:00,10.0,-4.1,14.1,0.3,1.4,111
2010-01-12 03:25:00,10.0,-4.2,14.2,0.3,1.4,112
2010-01-12 03:30:00,10.0,-4.4,14.4,0.3,1.4,112
2010-01-12 03:35:00,10.0,-4.6,14.5,0.2,1.4,111
2010-01-12 03:40:00,9.9,-4.2,14.1,0.2,1.4,111
2010-01-12 03:45:00,10.0,-4.2,14.2,0.2,1.3,112
2010-01-12 03:50:00,10.1,-3.7,13.8,0.2,1.4,112
2010-01-12 03:55:00,10.2,-3.5,13.7,0.2,1.6,111
2010-01-12 04:00:00,10.3,-3.3,13.6,0.2,1.7,112
2010-01-12 04:05:00,10.3,-3.6,13.9,0.2,1.8,112
2010-01-12 04:10:00,10.3,-3.3,13.7,0.2,1.9,112
2010-01-12 04:15:00,10.4,-3.4,13.8,0.2,2.1,111
2010-01-12 04:20:00,10.4,-3.3,13.7,0.2,2.1,112
2010-01-12 04:25:00,10.4,-3.1,13.5,0.3,2.1,112
2010-01-12 04:30:00,10.5,-3.3,13.8,0.3,2.0,112
2010-01-12 04:35:00,10.5,-2.9,13.4,0.2,2.0,111
2010-01-12 04:40:00,10.6,-3.2,13.8,0.3,2.0,112
2010-01-12 04:45:00,10.6,-3.0,13.5,0.3,2.0,111
2010-01-12 04:50:00,10.6,-3.2,13.8,0.3,2.0,112
2010-01-12 04:55:00,10.5,-3.7,14.2,0.2,2.0,112
2010-01-12 05:00:00,10.4,-3.5,14.0,0.2,1.8,112
2010-01-12 05:05:00,10.4,-3.1,13.5,0.2,1.8,112
2010-01-12 05:10:00,10.4,-3.5,14.0,0.3,1.8,111
2010-01-12 05:15:00,10.3,-3.7,14.1,0.3,1.8,112
2010-01-12 05:20:00,10.3,-3.8,14.0,0.3,1.8,112
2010-01-12 05:25:00,10.3,-4.0,14.2,0.3,1.9,112
2010-01-12 05:30:00,10.2,-3.9,14.1,0.3,1.8,111
2010-01-12 05:35:00,10.2,-3.9,14.1,0.3,1.8,112
2010-01-12 05:40:00,10.2,-3.6,13.8,0.3,1.7,112
2010-01-12 05:45:00,10.1,-3.4,13.5,0.3,1.7,111
2010-01-12 05:50:00,10.3,-3.6,13.9,0.3,1.8,112
2010-01-12 05:55:00,10.3,-3.2,13.4,0.3,1.7,112
2010-01-12 06:00:00,10.3,-3.2,13.5,0.3,1.7,112
2010-01-12 06:05:00,10.6,-2.9,13.6,0.3,1.7,112
2010-01-12 06:10:00,10.4,-2.7,13.1,0.3,1.8,111
2010-01-12 06:15:00,10.5,-2.8,13.3,0.3,2.0,112
2010-01-12 06:20:00,10.5,-3.0,13.5,0.3,2.2,112
2010-01-12 06:25:00,10.6,-2.6,13.2,0.3,2.2,112
2010-01-12 06:30:00,10.6,-3.2,13.8,0.3,2.2,111
2010-01-12 06:35:00,10.6,-2.8,13.5,0.3,2.3,112
2010-01-12 06:40:00,10.7,-2.9,13.7,0.3,2.3,112
2010-01-12 06:45:00,10.8,-3.0,13.8,0.3,2.3,112
2010-01-12 06:50:00,10.8,-3.1,13.9,0.3,2.3,112
2010-01-12 06:55:00,10.8,-3.2,14.0,0.4,2.2,111
2010-01-12 07:00:00,10.9,-3.0,13.9,0.4,2.3,112
2010-01-12 07:05:00,10.9,-3.2,14.0,0.5,2.2,112
2010-01-12 07:10:00,10.9,-3.1,13.9,0.6,2.3,111
2010-01-12 07:15:00,10.9,-3.1,14.0,0.8,2.3,112
2010-01-12 07:20:00,10.9,-3.0,14.0,1.3,2.3,112
2010-01-12 07:25:00,11.0,-2.8,13.7,2.3,2.3,112
2010-01-12 07:30:00,11.0,-3.1,14.1,4.2,2.4,112
2010-01-12 07:35:00,11.0,-2.9,14.0,7.2,2.4,112
2010-01-12 07:40:00,11.1,-3.0,14.1,11.6,2.5,111
2010-01-12 07:45:00,11.1,-2.9,14.0,17.2,2.5,112
2010-01-12 07:50:00,11.1,-3.1,14.2,22.7,2.5,112
2010-01-12 07:55:00,11.1,-3.3,14.4,25.8,2.5,111
2010-01-12 08:00:00,11.1,-3.0,14.1,27.4,2.4,112
2010-01-12 08:05:00,11.1,-3.2,14.3,28.6,2.4,112
2010-01-12 08:10:00,11.1,-3.3,14.4,29.7,2.5,112
2010-01-12 08:15:00,11.2,-3.3,14.5,30.4,2.5,111
2010-01-12 08:20:00,11.2,-3.5,14.7,30.8,2.5,112
2010-01-12 08:25:00,11.2,-3.3,14.5,31.1,2.5,112
2010-01-12 08:30:00,11.3,-3.1,14.3,31.2,2.4,112
2010-01-12 08:35:00,11.3,-3.1,14.4,31.4,2.5,111
2010-01-12 08:40:00,11.3,-3.3,14.6,31.6,2.5,112
2010-01-12 08:45:00,11.3,-3.4,14.6,31.8,2.4,112
2010-01-12 08:50:00,11.2,-3.5,14.8,31.9,2.4,112
2010-01-12 08:55:00,11.3,-3.5,14.8,31.8,2.4,112
2010-01-12 09:00:00,11.3,-3.4,14.7,31.8,2.5,112
2010-01-12 09:05:00,11.4,-3.5,14.9,31.8,2.4,111
2010-01-12 09:10:00,11.3,-3.7,15.0,31.9,2.4,112
2010-01-12 09:15:00,11.3,-4.0,15.3,32.1,2.4,112
2010-01-12 09:20:00,11.3,-3.6,15.0,32.1,2.5,112
2010-01-12 09:25:00,11.3,-3.8,15.1,32.2,2.5,111
2010-01-12 09:30:00,11.4,-3.9,15.2,32.3,2.5,112
2010-01-12 09:35:00,11.4,-4.0,15.3,32.3,2.5,112
2010-01-12 09:40:00,11.4,-4.2,15.5,32.3,2.4,112
2010-01-12 09:45:00,11.4,-4.1,15.4,32.4,2.4,111
2010-01-12 09:50:00,11.4,-4.3,15.7,32.4,2.4,112
2010-01-12 09:55:00,11.4,-4.5,15.9,32.4,2.3,112
2010-01-12 10:00:00,11.3,-4.7,16.0,32.4,2.3,112
2010-01-12 10:05:00,11.3,-4.8,16.1,32.4,2.3,111
2010-01-12 10:10:00,11.4,-4.5,15.8,32.4,2.3,112
2010-01-12 10:15:00,11.4,-4.7,16.1,32.4,2.3,112
2010-01-12 10:20:00,11.4,-4.5,15.9,32.4,2.3,112
2010-01-12 10:25:00,11.4,-4.6,16.0,32.4,2.4,112
2010-01-12 10:30:00,11.4,-4.7,16.1,32.4,2.4,112
2010-01-12 10:35:00,11.4,-4.9,16.3,32.5,2.4,111
2010-01-12 10:40:00,11.4,-4.8,16.2,32.5,2.4,112
2010-01-12 10:45:00,11.4,-4.9,16.3,32.5,2.4,112
2010-01-12 10:50:00,11.4,-4.7,16.1,32.5,2.4,112
2010-01-12 10:55:00,11.4,-4.9,16.4,32.5,2.4,111
2010-01-12 11:00:00,11.4,-5.2,16.7,32.5,2.3,112
2010-01-12 11:05:00,11.4,-5.3,16.7,32.5,2.3,112
2010-01-12 11:10:00,11.3,-5.4,16.7,32.5,2.3,111
2010-01-12 11:15:00,11.3,-5.0,16.2,32.5,2.3,111
2010-01-12 11:20:00,11.4,-5.3,16.6,32.5,2.3,112
2010-01-12 11:25:00,11.4,-5.3,16.6,32.5,2.3,111
2010-01-12 11:30:00,11.3,-4.9,16.2,32.5,2.4,112
2010-01-12 11:35:00,11.3,-5.0,16.3,32.5,2.4,112
2010-01-12 11:40:00,11.4,-5.2,16.6,32.5,2.4,111
2010-01-12 11:45:00,11.2,-5.4,16.6,32.5,2.4,112
2010-01-12 11:50:00,11.2,-5.3,16.5,32.5,2.4,111
2010-01-12 11:55:00,11.2,-5.2,16.4,32.5,2.4,112
2010-01-12 12:00:00,11.1,-5.4,16.6,32.5,2.5,111
2010-01-12 12:05:00,11.1,-5.2,16.3,32.5,2.5,112
2010-01-12 12:10:00,11.1,-5.4,16.5,32.4,2.4,112
2010-01-12 12:15:00,11.0,-5.0,16.0,32.4,2.4,111
2010-01-12 12:20:00,10.9,-5.5,16.4,32.4,2.4,112
2010-01-12 12:25:00,10.8,-5.4,16.2,32.4,2.4,112
2010-01-12 12:30:00,10.7,-5.1,15.8,32.4,2.4,112
2010-01-12 12:35:00,10.7,-5.1,15.7,32.4,2.4,111
2010-01-12 12:40:00,10.7,-5.2,15.9,32.4,2.4,112
2010-01-12 12:45:00,10.7,-5.0,15.7,32.4,2.4,112
2010-01-12 12:50:00,10.7,-5.1,15.8,32.4,2.4,111
2010-01-12 12:55:00,10.7,-4.9,15.6,32.4,2.3,112
2010-01-12 13:00:00,10.7,-5.3,16.0,32.4,2.3,112
2010-01-12 13:05:00,10.6,-5.2,15.8,32.4,2.2,111
2010-01-12 13:10:00,10.6,-5.1,15.7,32.4,2.2,112
2010-01-12 13:15:00,10.6,-5.0,15.6,32.4,2.2,112
2010-01-12 13:20:00,10.6,-5.3,15.8,32.4,2.2,111
2010-01-12 13:25:00,10.6,-5.3,15.8,32.4,2.2,112
2010-01-12 13:30:00,10.6,-5.1,15.7,32.4,2.2,111
2010-01-12 13:35:00,10.6,-5.0,15.6,32.3,2.2,112
2010-01-12 13:40:00,10.6,-5.1,15.7,32.4,2.2,112
2010-01-12 13:45:00,10.6,-5.3,16.0,32.4,2.4,111
2010-01-12 13:50:00,10.6,-5.3,15.9,32.4,2.4,112
2010-01-12 13:55:00,10.6,-4.9,15.5,32.4,2.3,112
2010-01-12 14:00:00,10.7,-5.0,15.7,32.4,2.3,112
2010-01-12 14:05:00,10.8,-5.0,15.8,32.4,2.3,111
2010-01-12 14:10:00,10.8,-5.0,15.8,32.4,2.3,112
2010-01-12 14:15:00,10.9,-5.0,15.9,32.4,2.4,111
2010-01-12 14:20:00,10.9,-4.9,15.8,32.3,2.4,112
2010-01-12 14:25:00,10.9,-4.9,15.8,32.4,2.4,112
2010-01-12 14:30:00,11.0,-4.8,15.8,32.3,2.4,112
2010-01-12 14:35:00,11.0,-4.6,15.6,32.3,2.4,111
2010-01-12 14:40:00,11.1,-4.4,15.5,32.3,2.4,112
2010-01-12 14:45:00,10.9,-4.4,15.3,32.3,2.4,112
2010-01-12 14:50:00,11.1,-4.5,15.6,32.3,2.4,112
2010-01-12 14:55:00,11.1,-4.6,15.7,32.3,2.4,112
2010-01-12 15:00:00,11.0,-4.7,15.7,32.3,2.4,112
2010-01-12 15:05:00,11.0,-4.7,15.7,32.2,2.5,112
2010-01-12 15:10:00,11.0,-4.5,15.5,32.2,2.5,112
2010-01-12 15:15:00,11.0,-4.7,15.7,32.2,2.5,111
2010-01-12 15:20:00,11.0,-4.6,15.6,32.1,2.4,112
2010-01-12 15:25:00,10.9,-4.6,15.6,32.1,2.4,112
2010-01-12 15:30:00,10.9,-4.6,15.5,32.0,2.4,112
2010-01-12 15:35:00,10.9,-4.6,15.5,32.0,2.4,112
2010-01-12 15:40:00,10.9,-4.8,15.7,32.0,2.4,111
2010-01-12 15:45:00,10.9,-4.4,15.3,31.9,2.4,112
2010-01-12 15:50:00,10.9,-4.6,15.5,31.9,2.4,112
2010-01-12 15:55:00,10.9,-5.1,16.0,31.9,2.4,111
2010-01-12 16:00:00,10.9,-4.9,15.8,31.7,2.3,112
2010-01-12 16:05:00,10.8,-5.0,15.8,31.5,2.3,112
2010-01-12 16:10:00,10.8,-4.8,15.6,31.1,2.3,112
2010-01-12 16:15:00,10.8,-5.0,15.8,30.8,2.3,111
2010-01-12 16:20:00,10.8,-4.7,15.4,30.3,2.3,112
2010-01-12 16:25:00,10.7,-4.8,15.5,29.6,2.3,112
2010-01-12 16:30:00,10.7,-4.7,15.5,28.4,2.4,111
2010-01-12 16:35:00,10.7,-4.6,15.3,26.7,2.4,112
2010-01-12 16:40:00,10.7,-5.5,16.3,24.5,2.4,111
2010-01-12 16:45:00,10.7,-4.9,15.5,19.8,2.3,112
2010-01-12 16:50:00,10.7,-4.7,15.4,14.9,2.3,112
2010-01-12 16:55:00,10.7,-6.2,16.9,10.6,2.3,111
2010-01-12 17:00:00,10.6,-5.2,15.9,6.0,2.2,112
2010-01-12 17:05:00,10.6,-4.9,15.6,3.3,2.2,111
2010-01-12 17:10:00,10.7,-5.1,15.8,1.8,2.2,112
2010-01-12 17:15:00,10.7,-5.0,15.7,1.0,2.2,111
2010-01-12 17:20:00,10.7,-4.6,15.3,0.6,2.2,112
2010-01-12 17:25:00,10.8,-5.0,15.7,0.5,2.3,111
2010-01-12 17:30:00,10.8,-5.0,15.8,0.4,2.3,112
2010-01-12 17:35:00,10.8,-4.8,15.6,0.3,2.3,111
2010-01-12 17:40:00,10.8,-4.8,15.6,0.3,2.3,112
2010-01-12 17:45:00,10.8,-4.6,15.4,0.3,2.4,112
2010-01-12 17:50:00,10.8,-4.8,15.7,0.3,2.4,111
2010-01-12 17:55:00,10.9,-4.6,15.5,0.3,2.4,112
2010-01-12 18:00:00,10.9,-4.9,15.8,0.3,2.4,112
2010-01-12 18:05:00,10.9,-5.2,16.0,0.3,2.4,112
2010-01-12 18:10:00,10.9,-5.1,16.0,0.3,2.4,111
2010-01-12 18:15:00,10.9,-4.9,15.7,0.4,2.4,112
2010-01-12 18:20:00,10.9,-4.9,15.8,0.4,2.4,112
2010-01-12 18:25:00,10.9,-5.2,16.1,0.4,2.4,111
2010-01-12 18:30:00,10.9,-6.2,17.1,0.4,2.4,112
2010-01-12 18:35:00,10.8,-5.6,16.5,0.4,2.3,111
2010-01-12 18:40:00,10.9,-5.5,16.4,0.4,2.3,112
2010-01-12 18:45:00,10.9,-5.7,16.6,0.4,2.3,112
2010-01-12 18:50:00,10.9,-6.0,16.8,0.4,2.3,111
2010-01-12 18:55:00,10.8,-5.5,16.4,0.4,2.3,112
2010-01-12 19:00:00,10.9,-5.3,16.1,0.4,2.3,112
2010-01-12 19:05:00,10.9,-5.4,16.3,0.4,2.4,111
2010-01-12 19:10:00,10.9,-5.5,16.4,0.4,2.4,112
2010-01-12 19:15:00,10.9,-5.3,16.2,0.4,2.4,111
2010-01-12 19:20:00,10.9,-5.2,16.1,0.4,2.4,112
2010-01-12 19:25:06,10.9,-4.6,15.5,0.4,2.4,35
2010-01-12 19:30:06,11.0,-5.1,16.1,0.4,2.4,111
2010-01-12 19:35:06,11.0,-5.2,16.2,0.4,2.4,112
2010-01-12 19:40:06,10.9,-4.9,15.8,0.4,2.4,112
2010-01-12 19:45:06,11.0,-5.1,16.1,0.4,2.4,112
2010-01-12 19:50:06,11.0,-5.3,16.3,0.4,2.4,111
2010-01-12 19:55:06,11.0,-5.1,16.1,0.4,2.4,112
2010-01-12 20:00:06,11.0,-5.5,16.5,0.4,2.4,111
2010-01-12 20:05:06,11.0,-5.3,16.3,0.4,2.4,112
2010-01-12 20:10:06,11.0,-5.1,16.1,0.4,2.4,112
2010-01-12 20:15:06,11.0,-5.0,16.0,0.4,2.4,112
2010-01-12 20:20:06,11.0,-5.3,16.3,0.4,2.4,111
2010-01-12 20:25:06,10.9,-5.1,16.1,0.4,2.4,112
2010-01-12 20:30:06,10.9,-5.1,16.0,0.4,2.4,111
2010-01-12 20:35:06,10.9,-5.0,15.9,0.4,2.5,111
2010-01-12 20:40:06,10.8,-5.3,16.1,0.4,2.5,112
2010-01-12 20:45:06,10.9,-5.2,16.0,0.4,2.4,112
2010-01-12 20:50:06,10.9,-5.4,16.2,0.3,2.4,111
2010-01-12 20:55:06,10.8,-5.2,16.0,0.3,2.4,112
2010-01-12 21:00:06,10.8,-5.3,16.1,0.3,2.4,111
2010-01-12 21:05:06,10.8,-5.2,16.0,0.3,2.4,112
2010-01-12 21:10:06,10.8,-5.2,16.0,0.3,2.4,111
2010-01-12 21:15:06,10.8,-5.1,15.9,0.3,2.4,112
2010-01-12 21:20:06,10.8,-4.8,15.7,0.3,2.4,112
2010-01-12 21:25:06,10.8,-5.1,15.9,0.3,2.4,111
2010-01-12 21:30:06,10.8,-5.0,15.9,0.3,2.4,112
2010-01-12 21:35:06,10.8,-5.2,16.0,0.3,2.3,111
2010-01-12 21:40:06,10.8,-4.9,15.7,0.3,2.3,111
2010-01-12 21:45:06,10.8,-4.7,15.4,0.3,2.4,112
2010-01-12 21:50:06,10.8,-4.8,15.6,0.3,2.6,111
2010-01-12 21:55:06,10.7,-4.9,15.7,0.3,2.5,112
2010-01-12 22:00:06,10.7,-5.0,15.7,0.3,2.5,111
2010-01-12 22:05:06,10.7,-4.7,15.4,0.3,2.4,112
2010-01-12 22:10:06,10.8,-4.5,15.4,0.3,2.4,112
2010-01-12 22:15:06,10.6,-4.8,15.5,0.3,2.4,112
2010-01-12 22:20:06,10.6,-4.8,15.4,0.2,2.4,111
2010-01-12 22:25:06,10.6,-5.1,15.6,0.2,2.5,112
2010-01-12 22:30:06,10.5,-5.5,16.1,0.2,2.8,112
2010-01-12 22:35:06,10.5,-5.2,15.7,0.2,3.1,112
2010-01-12 22:40:06,10.4,-4.1,14.5,0.2,3.3,112
2010-01-12 22:45:06,10.3,-0.8,11.1,0.2,3.2,111
2010-01-12 22:50:06,10.2,-0.4,10.5,0.2,2.7,112
2010-01-12 22:55:06,10.1,-3.3,13.4,0.2,3.1,111
2010-01-12 23:00:06,10.0,-4.5,14.5,0.2,3.7,112
2010-01-12 23:05:06,9.9,-3.6,13.6,0.2,4.2,112
2010-01-12 23:10:06,10.0,-3.2,13.1,0.2,5.0,111
2010-01-12 23:15:06,9.9,-2.2,12.1,0.2,4.9,112
2010-01-12 23:20:06,9.8,-1.6,11.5,0.2,3.9,111
2010-01-12 23:25:06,9.8,-0.8,10.6,0.2,3.4,112
2010-01-12 23:30:06,9.8,0.7,9.1,0.2,3.9,111
2010-01-12 23:35:06,9.7,3.0,6.7,0.1,5.4,112
2010-01-12 23:40:06,9.7,1.6,8.0,0.1,5.8,111
2010-01-12 23:45:06,9.7,2.6,7.1,0.1,6.3,112
2010-01-12 23:50:06,9.7,2.5,7.2,0.1,5.0,111
2010-01-12 23:55:06,9.6,3.8,5.8,0.1,4.9,112
